Location: Zihuatanejo
(17.6330°N, 101.5500°W)
Time: 01:23:10
(UTC-05:00)

Daily predictions for brighter satellites

Satellite Brightness Start Highest point End
(mag) Time Altitude Azimuth Time Altitude Azimuth Time Altitude Azimuth
ATLAS 3B R/B 4.5 04:33:11 26° ESE 04:33:58 26° ESE 04:39:51 10° ENE
CZ-3 R/B 3.8 04:35:16 66° WSW 04:40:19 90° S 04:50:57 10° ENE
Atlas 2A Centaur Rocket 4.3 04:57:36 47° N 04:58:27 49° NNE 05:25:57 10° E
Milstar 3 4.5 05:05:32 22° SSE 05:06:57 23° SE 05:13:24 10° E
Cosmos 1603 4.4 05:21:12 10° N 05:26:42 51° ENE 05:32:12 10° SSE
Atlas Centaur 2 3.6 05:28:50 27° N 05:28:50 27° N 05:32:17 10° NE
Cosmos 967 Rocket 4.5 05:38:04 65° SSW 05:38:04 65° SSW 05:43:38 10° SSE
CZ-3C R/B 2.9 05:40:03 34° SE 05:40:03 34° SE 05:45:23 10° ESE
Centaur AC-146 4.5 05:37:24 24° S 05:40:17 34° SE 06:05:47 10° E
Centaur AC-146 4.5 05:37:24 24° S 05:40:18 34° SE 06:05:47 10° E
USA 238 DEB 3.8 05:37:56 40° S 05:40:39 75° ESE 05:47:35 10° NNE
USA 238 3.8 05:37:58 39° S 05:40:46 74° ESE 05:47:42 10° NNE
Cosmos 1844 Rocket 4.3 05:37:44 10° SSE 05:42:40 32° ESE 05:47:37 10° NE
Okean O Rocket 3.4 05:39:57 10° N 05:41:31 22° N 05:41:31 22° N
Cosmos 2263 Rocket 3.9 05:53:09 18° NNW 05:53:09 18° NNW 05:54:59 10° N
Cosmos 1943 4.5 05:46:21 10° N 05:51:39 40° ENE 05:56:54 10° SE
PAYLOAD B 4.0 05:47:18 10° N 05:52:45 72° WNW 05:53:31 62° SW
ASC 2 Rocket 4.0 05:54:49 34° N 05:54:49 34° N 05:58:16 10° ENE
IRS-1C Rocket 4.0 05:49:46 10° NNE 05:55:03 90° NW 05:57:59 27° SSW
ASTRO E2 3.5 05:56:01 45° NNE 05:56:01 45° NNE 05:59:08 10° NE
ADEOS II 4.1 05:51:35 10° NNW 05:52:23 14° NNW 05:52:23 14° NNW
Cosmos 2266 Rocket 3.9 05:53:43 10° N 06:00:07 79° W 06:06:28 10° S
Cosmos 1437 Rocket 3.1 05:59:40 10° N 06:03:37 67° E 06:07:38 10° SSE
Skynet4D Del rocket 4.3 06:04:18 35° NW 06:05:44 41° NNW 06:10:52 10° ENE
OAO 3 Rocket 3.3 06:07:02 41° NW 06:08:32 67° NNE 06:13:11 10° ESE
GPS 2-18 Rocket1 2.9 06:08:43 75° SSE 06:08:43 75° SSE 06:12:16 10° ESE
GPS 2-14 Rocket1 2.8 06:12:34 51° NNW 06:12:55 54° N 06:16:38 10° ENE
NOSS 3-2 (C) 4.4 06:12:32 10° S 06:17:57 44° ESE 06:23:35 10° NE
Meteor PRIRODA 3.9 06:15:23 10° N 06:18:37 47° WNW 06:18:37 47° WNW
Meteor 1-19 Rocket 4.2 06:13:30 10° SSW 06:19:21 74° W 06:25:13 10° N
Cosmos 1844 4.3 06:14:58 10° S 06:20:22 56° ESE 06:25:50 10° NNE
Meteor 2-4 Rocket 3.8 06:16:56 10° S 06:22:20 78° E 06:27:53 10° N
ATLAS 3B R/B 3.2 06:20:33 25° WSW 06:24:23 43° WNW 06:31:16 10° N
BREEZE-M DEB (TANK) 2.8 06:27:02 28° NW 06:28:20 79° NE 06:35:28 10° SE
ISS -2.3 06:27:19 10° NNW 06:30:23 36° NE 06:33:27 10° ESE
TRAILBLAZER 4.5 06:27:33 11° SSW 06:31:52 85° WNW 06:36:22 10° NNE
CZ-4B R/B 4.0 06:30:28 10° NNW 06:34:56 28° WNW 06:37:34 19° WSW
Meteor 1-4 Rocket 3.4 06:34:05 10° N 06:37:26 49° E 06:40:48 10° SSE
GPS 2-12 Rocket1 3.0 06:35:58 25° W 06:38:34 71° SSW 06:43:04 10° ESE
Cosmos 1544 Rocket 3.5 06:34:44 10° NNW 06:39:02 63° W 06:43:20 10° S
Abrixas 4.0 06:38:33 10° S 06:40:41 26° SE 06:42:48 10° ENE
ATLAS CENTAUR R/B 2.1 06:37:39 10° S 06:41:43 52° ESE 06:45:33 10° NE
Cosmos 371 Rocket 4.2 06:37:56 10° N 06:42:39 51° ENE 06:47:19 10° SSE
Okean-O 2.5 06:39:38 10° N 06:44:03 73° WNW 06:48:27 10° SSW
Cosmos 1975 3.5 06:41:32 10° NNW 06:45:10 31° W 06:48:48 10° SSW
H-II Stage 2 4.2 06:44:36 12° NW 06:46:30 26° NNE 06:51:00 10° E
Palapa 6 Rocket 4.2 06:41:42 16° WNW 06:46:39 68° N 06:53:56 10° E
Cosmos 1455 Rocket 3.0 06:42:48 10° NNW 06:47:01 56° W 06:51:15 10° S
CZ-2C R/B 3.7 06:45:05 10° S 06:49:41 78° W 06:54:22 10° NNW
EO 1 Del DPAF 3.9 06:47:12 10° SSE 06:50:58 59° ENE 06:54:43 10° N
Cosmos 1486 Rocket 4.3 06:48:25 10° SSW 06:53:28 46° WNW 06:58:28 10° N
SEDSat Delta rocket 4.2 06:49:42 10° NW 06:55:20 51° NNE 07:00:13 10° E
IDEFIX/ARIANE 42P 3.1 06:55:41 10° NNE 07:00:55 67° ESE 07:06:08 10° S
Cosmos 1553 Rocket 4.3 06:55:53 10° SSW 07:01:41 42° W 07:07:26 10° NNW
Cosmos 2278 Rocket 2.7 06:57:46 10° S 07:03:20 66° ESE 07:08:56 10° NNE
Landsat 4 4.5 07:01:47 10° SSW 07:05:10 30° W 07:08:33 10° NW
Okean 1-7 Rocket 3.6 07:02:21 10° S 07:06:49 79° W 07:11:19 10° N
CZ-2C R/B 3.1 07:02:40 10° NNE 07:07:13 57° ESE 07:11:54 10° S
Cosmos 468 Rocket 4.1 07:02:02 10° NNW 07:07:21 89° W 07:12:38 10° SSE
NOSS 3-2 (A) 3.8 07:02:47 10° SW 07:08:12 41° WNW 07:13:54 10° N
Cosmos 1745 Rocket 4.2 07:02:47 10° N 07:09:09 84° E 07:15:26 10° S
Intelsat 5-2 Rocket 4.1 07:06:16 10° WNW 07:09:16 42° NNE 07:16:16 10° E
Meteor 1-23 Rocket 4.4 07:04:59 10° SSW 07:10:19 48° W 07:15:40 10° N
Cosmos 1515 3.6 07:06:44 10° S 07:10:30 71° W 07:14:17 10° N
